• In Romania
  • List of Countries
  • For 7 days
  • Water Temperature
  • Satellite Maps
  • Weather Map
  • Weather Widgets
  • user-avatar
    Login

    Hourly Weather Shibenik

    Today, 19 June, Tuesday

    Time Temperature Precipitation Wind Pressure Humidity
    00:00 +18°C° 0 mm 1 mps 744 mmHg 85%
    01:00 +18°C° 0 mm 1 mps 744 mmHg 85%
    02:00 +18°C° 0 mm 1 mps 744 mmHg 85%
    03:00 +18°C° 0 mm 1 mps 744 mmHg 85%
    04:00 +16°C° 0 mm 1 mps 744 mmHg 85%
    05:00 +18°C° 0 mm 2 mps 744 mmHg 81%
    06:00 +19°C° 0 mm 2 mps 745 mmHg 77%
    07:00 +21°C° 0 mm 3 mps 745 mmHg 72%
    08:00 +24°C° 0.1 mm 3 mps 745 mmHg 66%
    09:00 +25°C° 0.1 mm 4 mps 745 mmHg 61%
    10:00 +26°C° 0.1 mm 5 mps 745 mmHg 56%
    11:00 +27°C° 0.1 mm 5 mps 745 mmHg 54%
    12:00 +27°C° 0.1 mm 5 mps 745 mmHg 51%
    13:00 +28°C° 0 mm 4 mps 745 mmHg 50%
    14:00 +28°C° 0.1 mm 4 mps 745 mmHg 51%
    15:00 +28°C° 0.1 mm 4 mps 745 mmHg 52%
    16:00 +28°C° 0.1 mm 3 mps 745 mmHg 53%
    17:00 +26°C° 0.1 mm 3 mps 745 mmHg 61%
    18:00 +25°C° 0.1 mm 2 mps 745 mmHg 68%
    19:00 +23°C° 0.1 mm 2 mps 745 mmHg 76%
    20:00 +22°C° 0 mm 1 mps 745 mmHg 78%
    21:00 +21°C° 0 mm 1 mps 745 mmHg 80%
    22:00 +20°C° 0 mm 1 mps 746 mmHg 82%
    23:00 +19°C° 0 mm 1 mps 746 mmHg 84%

    Tomorrow, 20 June, Wednesday

    Time Temperature Precipitation Wind Pressure Humidity
    00:00 +19°C° 0 mm 1 mps 746 mmHg 85%
    01:00 +19°C° 0 mm 1 mps 746 mmHg 87%
    02:00 +18°C° 0 mm 1 mps 746 mmHg 88%
    03:00 +18°C° 0 mm 1 mps 746 mmHg 89%
    04:00 +18°C° 0 mm 1 mps 746 mmHg 90%
    05:00 +19°C° 0 mm 1 mps 746 mmHg 86%
    06:00 +20°C° 0 mm 1 mps 746 mmHg 82%
    07:00 +22°C° 0 mm 1 mps 746 mmHg 78%
    08:00 +23°C° 0 mm 1 mps 746 mmHg 73%
    09:00 +25°C° 0 mm 1 mps 746 mmHg 69%
    10:00 +27°C° 0 mm 2 mps 746 mmHg 64%
    11:00 +28°C° 0 mm 2 mps 746 mmHg 61%
    12:00 +28°C° 0 mm 2 mps 746 mmHg 59%
    13:00 +29°C° 0 mm 2 mps 746 mmHg 56%
    14:00 +29°C° 0 mm 2 mps 745 mmHg 56%
    15:00 +30°C° 0 mm 2 mps 745 mmHg 57%
    16:00 +30°C° 0 mm 2 mps 745 mmHg 57%
    17:00 +28°C° 0 mm 1 mps 745 mmHg 64%
    18:00 +27°C° 0 mm 1 mps 745 mmHg 72%
    19:00 +25°C° 0 mm 1 mps 744 mmHg 79%
    20:00 +24°C° 0 mm 1 mps 745 mmHg 83%
    21:00 +21°C° 0 mm 0 mps 745 mmHg 86%
    22:00 +20°C° 0 mm 0 mps 745 mmHg 89%
    23:00 +19°C° 0 mm 0 mps 745 mmHg 90%

    Day after tomorrow, 21 June, Thursday

    Time Temperature Precipitation Wind Pressure Humidity
    00:00 +19°C° 0 mm 0 mps 744 mmHg 92%
    01:00 +18°C° 0 mm 0 mps 744 mmHg 93%
    02:00 +18°C° 0 mm 0 mps 744 mmHg 93%
    03:00 +18°C° 0 mm 0 mps 744 mmHg 94%
    04:00 +17°C° 0 mm 0 mps 743 mmHg 95%
    05:00 +19°C° 0 mm 0 mps 743 mmHg 90%
    06:00 +21°C° 0 mm 0 mps 743 mmHg 86%
    07:00 +22°C° 0 mm 0 mps 743 mmHg 81%
    08:00 +24°C° 0 mm 0 mps 743 mmHg 74%
    09:00 +26°C° 0 mm 0 mps 743 mmHg 67%
    10:00 +28°C° 0 mm 0 mps 743 mmHg 60%
    11:00 +31°C° 0.1 mm 1 mps 742 mmHg 56%
    12:00 +32°C° 0.1 mm 1 mps 742 mmHg 52%
    13:00 +33°C° 0.1 mm 1 mps 741 mmHg 47%
    14:00 +33°C° 0.1 mm 1 mps 741 mmHg 48%
    15:00 +32°C° 0.1 mm 1 mps 740 mmHg 49%
    16:00 +32°C° 0.1 mm 1 mps 740 mmHg 49%
    17:00 +30°C° 0 mm 1 mps 740 mmHg 57%
    18:00 +28°C° 0 mm 2 mps 739 mmHg 65%
    19:00 +27°C° 0 mm 2 mps 739 mmHg 74%
    20:00 +25°C° 0 mm 2 mps 739 mmHg 76%
    21:00 +24°C° 0 mm 2 mps 739 mmHg 79%
    22:00 +23°C° 0 mm 2 mps 739 mmHg 82%
    23:00 +21°C° 0.1 mm 2 mps 740 mmHg 84%

    22 June, Friday

    Time Temperature Precipitation Wind Pressure Humidity
    00:00 +20°C° 0.1 mm 2 mps 740 mmHg 86%
    01:00 +19°C° 0.1 mm 2 mps 740 mmHg 88%
    02:00 +19°C° 0.1 mm 2 mps 740 mmHg 89%
    03:00 +18°C° 0.1 mm 2 mps 740 mmHg 90%
    04:00 +18°C° 0.1 mm 2 mps 740 mmHg 91%
    05:00 +17°C° 0.4 mm 3 mps 741 mmHg 92%
    06:00 +16°C° 0.4 mm 3 mps 741 mmHg 93%
    07:00 +14°C° 0.4 mm 3 mps 742 mmHg 94%
    08:00 +13°C° 0.5 mm 3 mps 742 mmHg 94%
    09:00 +13°C° 0.5 mm 2 mps 743 mmHg 93%
    10:00 +13°C° 0.5 mm 2 mps 744 mmHg 93%
    11:00 +12°C° 1.6 mm 2 mps 744 mmHg 93%
    12:00 +12°C° 1.6 mm 2 mps 745 mmHg 93%
    13:00 +10°C° 1.6 mm 2 mps 745 mmHg 93%
    14:00 +10°C° 0.8 mm 2 mps 745 mmHg 93%
    15:00 +10°C° 0.8 mm 2 mps 745 mmHg 94%
    16:00 +10°C° 0.8 mm 1 mps 745 mmHg 95%
    17:00 +10°C° 0.5 mm 1 mps 745 mmHg 94%
    18:00 +10°C° 0.5 mm 1 mps 745 mmHg 94%
    19:00 +9°C° 0.5 mm 0 mps 745 mmHg 94%
    20:00 +9°C° 0 mm 0 mps 745 mmHg 95%
    21:00 +9°C° 0 mm 1 mps 745 mmHg 95%
    22:00 +8°C° 0 mm 1 mps 746 mmHg 95%
    23:00 +8°C° 0 mm 1 mps 746 mmHg 95%

    23 June, Saturday

    Time Temperature Precipitation Wind Pressure Humidity
    00:00 +6°C° 0 mm 0 mps 746 mmHg 95%
    01:00 +6°C° 0 mm 0 mps 746 mmHg 95%
    02:00 +6°C° 0 mm 0 mps 746 mmHg 95%
    03:00 +6°C° 0 mm 0 mps 746 mmHg 95%
    04:00 +5°C° 0 mm 0 mps 746 mmHg 95%
    05:00 +7°C° 0 mm 0 mps 746 mmHg 92%
    06:00 +9°C° 0 mm 0 mps 746 mmHg 88%
    07:00 +11°C° 0 mm 0 mps 746 mmHg 85%
    08:00 +15°C° 0 mm 1 mps 746 mmHg 74%
    09:00 +18°C° 0 mm 1 mps 746 mmHg 63%
    10:00 +20°C° 0 mm 2 mps 746 mmHg 53%
    11:00 +20°C° 0 mm 2 mps 746 mmHg 50%
    12:00 +21°C° 0 mm 2 mps 745 mmHg 48%
    13:00 +23°C° 0 mm 2 mps 745 mmHg 45%
    14:00 +23°C° 0 mm 2 mps 745 mmHg 47%
    15:00 +22°C° 0 mm 3 mps 744 mmHg 48%
    16:00 +22°C° 0 mm 3 mps 744 mmHg 49%
    17:00 +20°C° 0 mm 2 mps 744 mmHg 57%
    18:00 +19°C° 0 mm 2 mps 744 mmHg 66%
    19:00 +18°C° 0 mm 1 mps 744 mmHg 74%
    20:00 +16°C° 0 mm 1 mps 744 mmHg 78%
    21:00 +14°C° 0 mm 1 mps 745 mmHg 82%
    22:00 +13°C° 0 mm 1 mps 745 mmHg 86%
    23:00 +12°C° 0 mm 1 mps 745 mmHg 87%

    24 June, Sunday

    Time Temperature Precipitation Wind Pressure Humidity
    00:00 +12°C° 0 mm 1 mps 745 mmHg 88%
    01:00 +10°C° 0 mm 0 mps 745 mmHg 89%
    02:00 +10°C° 0 mm 0 mps 744 mmHg 90%
    03:00 +9°C° 0 mm 0 mps 744 mmHg 91%
    04:00 +9°C° 0 mm 0 mps 744 mmHg 91%
    05:00 +11°C° 0 mm 0 mps 745 mmHg 85%
    06:00 +13°C° 0 mm 0 mps 745 mmHg 79%
    07:00 +16°C° 0 mm 1 mps 745 mmHg 73%
    08:00 +19°C° 0 mm 1 mps 745 mmHg 66%
    09:00 +19°C° 0 mm 2 mps 745 mmHg 59%
    10:00 +21°C° 0 mm 2 mps 745 mmHg 52%
    11:00 +23°C° 0 mm 2 mps 745 mmHg 50%
    12:00 +24°C° 0 mm 2 mps 744 mmHg 48%
    13:00 +24°C° 0 mm 2 mps 744 mmHg 46%
    14:00 +24°C° 0 mm 3 mps 744 mmHg 48%
    15:00 +24°C° 0 mm 3 mps 744 mmHg 49%
    16:00 +24°C° 0 mm 3 mps 744 mmHg 51%
    17:00 +21°C° 0 mm 2 mps 744 mmHg 59%
    18:00 +20°C° 0 mm 2 mps 744 mmHg 67%
    19:00 +18°C° 0 mm 2 mps 744 mmHg 75%
    20:00 +18°C° 0 mm 1 mps 744 mmHg 79%
    21:00 +15°C° 0 mm 1 mps 744 mmHg 83%
    22:00 +14°C° 0 mm 1 mps 744 mmHg 87%
    23:00 +13°C° 0 mm 1 mps 744 mmHg 89%
    Show more